Time,TemperatureF,DewpointF,PressureIn,WindDirection,WindDirectionDegrees,WindSpeedMPH,WindSpeedGustMPH,Humidity,HourlyPrecipIn,Conditions,Clouds,dailyrainin,SoftwareType,DateUTC
2013-02-07 00:02:00,40.6,29.0,30.35,SE,135,0.0,-999.0,63,0.00,Sunny,,0.00,Open2300\PHP-WU,2013-02-07 05:02:00,
2013-02-07 00:05:00,40.5,28.8,30.35,East,90,0.0,-999.0,63,0.00,Sunny,,0.00,Open2300\PHP-WU,2013-02-07 05:05:00,
2013-02-07 00:11:00,40.1,28.8,30.35,SE,135,0.0,-999.0,64,0.00,Sunny,,0.00,Open2300\PHP-WU,2013-02-07 05:11:00,
2013-02-07 00:17:00,39.9,28.7,30.35,East,90,0.0,-999.0,64,0.00,Sunny,,0.00,Open2300\PHP-WU,2013-02-07 05:17:00,
2013-02-07 00:23:00,39.9,29.0,30.35,South,180,0.0,-999.0,65,0.00,Sunny,,0.00,Open2300\PHP-WU,2013-02-07 05:23:00,
2013-02-07 00:29:00,39.7,29.2,30.35,SSE,157,0.0,-999.0,66,0.00,Sunny,,0.00,Open2300\PHP-WU,2013-02-07 05:29:00,
2013-02-07 00:35:00,39.7,29.6,30.35,NE,45,2.0,-999.0,67,0.00,Sunny,,0.00,Open2300\PHP-WU,2013-02-07 05:35:00,
2013-02-07 00:38:00,39.9,29.8,30.35,NNW,337,0.0,-999.0,67,0.00,Sunny,,0.00,Open2300\PHP-WU,2013-02-07 05:38:00,
2013-02-07 00:44:00,39.9,29.8,30.35,ENE,67,0.0,-999.0,67,0.00,Sunny,,0.00,Open2300\PHP-WU,2013-02-07 05:44:00,
2013-02-07 00:50:00,39.7,30.0,30.34,West,270,0.0,-999.0,68,0.00,Sunny,,0.00,Open2300\PHP-WU,2013-02-07 05:50:00,
2013-02-07 00:56:00,39.7,30.0,30.34,SE,135,0.0,-999.0,68,0.00,Sunny,,0.00,Open2300\PHP-WU,2013-02-07 05:56:00,
2013-02-07 01:02:00,39.4,30.0,30.34,South,180,0.0,-999.0,69,0.00,Sunny,,0.00,Open2300\PHP-WU,2013-02-07 06:02:00,
2013-02-07 01:08:00,39.4,30.4,30.34,NNW,337,0.0,-999.0,70,0.00,Sunny,,0.00,Open2300\PHP-WU,2013-02-07 06:08:00,
2013-02-07 01:14:00,39.4,30.4,30.34,NW,315,0.0,-999.0,70,0.00,Sunny,,0.00,Open2300\PHP-WU,2013-02-07 06:14:00,
2013-02-07 01:20:00,39.4,30.7,30.34,NE,45,0.0,-999.0,71,0.00,Sunny,,0.00,Open2300\PHP-WU,2013-02-07 06:20:00,
2013-02-07 01:26:00,39.6,31.2,30.34,South,180,0.0,-999.0,72,0.00,Sunny,,0.00,Open2300\PHP-WU,2013-02-07 06:26:00,
2013-02-07 01:32:00,39.4,31.0,30.34,NNW,337,0.0,-999.0,72,0.00,Sunny,,0.00,Open2300\PHP-WU,2013-02-07 06:32:00,
2013-02-07 01:38:00,39.4,31.0,30.35,North,0,0.0,-999.0,72,0.00,Sunny,,0.00,Open2300\PHP-WU,2013-02-07 06:38:00,
2013-02-07 01:44:00,39.0,31.0,30.35,South,180,0.0,-999.0,73,0.00,Sunny,,0.00,Open2300\PHP-WU,2013-02-07 06:44:00,
2013-02-07 01:50:00,39.0,31.0,30.35,NNE,22,0.0,-999.0,73,0.00,Sunny,,0.00,Open2300\PHP-WU,2013-02-07 06:50:00,
2013-02-07 01:56:00,38.8,30.9,30.35,SSE,157,0.0,-999.0,73,0.00,Sunny,,0.00,Open2300\PHP-WU,2013-02-07 06:56:00,
2013-02-07 02:02:00,38.5,30.9,30.34,NNE,22,0.0,-999.0,74,0.00,Sunny,,0.00,Open2300\PHP-WU,2013-02-07 07:02:00,
2013-02-07 02:08:00,38.5,30.9,30.34,East,90,0.0,-999.0,74,0.00,Sunny,,0.00,Open2300\PHP-WU,2013-02-07 07:08:00,
2013-02-07 02:14:00,38.3,31.0,30.34,North,0,0.0,-999.0,75,0.00,Sunny,,0.00,Open2300\PHP-WU,2013-02-07 07:14:00,
2013-02-07 02:20:00,38.3,31.0,30.34,NNW,337,0.0,-999.0,75,0.00,Sunny,,0.00,Open2300\PHP-WU,2013-02-07 07:20:00,
2013-02-07 02:26:00,38.3,31.0,30.34,NNE,22,0.0,-999.0,75,0.00,Sunny,,0.00,Open2300\PHP-WU,2013-02-07 07:26:00,
2013-02-07 02:32:00,38.1,30.9,30.34,North,0,0.0,-999.0,75,0.00,Sunny,,0.00,Open2300\PHP-WU,2013-02-07 07:32:00,
2013-02-07 02:38:00,37.9,31.0,30.34,North,0,0.0,-999.0,76,0.00,Sunny,,0.00,Open2300\PHP-WU,2013-02-07 07:38:00,
2013-02-07 02:44:00,37.9,31.0,30.34,NNW,337,0.0,-999.0,76,0.00,Sunny,,0.00,Open2300\PHP-WU,2013-02-07 07:44:00,
2013-02-07 02:50:00,37.9,31.0,30.34,SSE,157,0.0,-999.0,76,0.00,Sunny,,0.00,Open2300\PHP-WU,2013-02-07 07:50:00,
2013-02-07 02:56:00,37.6,31.0,30.34,NNW,337,0.0,-999.0,77,0.00,Sunny,,0.00,Open2300\PHP-WU,2013-02-07 07:56:00,
2013-02-07 03:01:00,37.6,31.0,30.34,North,0,0.0,-999.0,77,0.00,Sunny,,0.00,Open2300\PHP-WU,2013-02-07 08:01:00,
2013-02-07 03:09:00,37.2,30.7,30.35,North,0,0.0,-999.0,77,0.00,Sunny,,0.00,Open2300\PHP-WU,2013-02-07 08:09:00,
2013-02-07 03:15:00,37.2,31.0,30.34,North,0,0.0,-999.0,78,0.00,Sunny,,0.00,Open2300\PHP-WU,2013-02-07 08:15:00,
2013-02-07 03:21:00,37.0,30.8,30.34,NNW,337,0.0,-999.0,78,0.00,Sunny,,0.00,Open2300\PHP-WU,2013-02-07 08:21:00,
2013-02-07 03:27:00,37.0,30.8,30.34,NNW,337,0.0,-999.0,78,0.00,Sunny,,0.00,Open2300\PHP-WU,2013-02-07 08:27:00,
2013-02-07 03:33:00,36.9,30.6,30.35,North,0,0.0,-999.0,78,0.00,Sunny,,0.00,Open2300\PHP-WU,2013-02-07 08:33:00,
2013-02-07 03:39:00,36.5,30.3,30.34,North,0,0.0,-999.0,78,0.00,Sunny,,0.00,Open2300\PHP-WU,2013-02-07 08:39:00,
2013-02-07 03:45:00,36.7,30.5,30.34,NNW,337,0.0,-999.0,78,0.00,Sunny,,0.00,Open2300\PHP-WU,2013-02-07 08:45:00,
2013-02-07 03:51:00,36.5,30.3,30.35,NNW,337,0.0,-999.0,78,0.00,Sunny,,0.00,Open2300\PHP-WU,2013-02-07 08:51:00,
2013-02-07 03:57:00,36.5,30.6,30.34,NNW,337,0.0,-999.0,79,0.00,Sunny,,0.00,Open2300\PHP-WU,2013-02-07 08:57:00,
2013-02-07 04:03:00,36.7,30.8,30.34,ENE,67,0.0,-999.0,79,0.00,Sunny,,0.00,Open2300\PHP-WU,2013-02-07 09:03:00,
2013-02-07 04:09:00,36.7,30.8,30.34,NNE,22,0.0,-999.0,79,0.00,Sunny,,0.00,Open2300\PHP-WU,2013-02-07 09:09:00,
2013-02-07 04:15:00,36.5,30.6,30.34,NNW,337,0.0,-999.0,79,0.00,Sunny,,0.00,Open2300\PHP-WU,2013-02-07 09:15:00,
2013-02-07 04:21:00,36.5,30.6,30.35,North,0,0.0,-999.0,79,0.00,Sunny,,0.00,Open2300\PHP-WU,2013-02-07 09:21:00,
2013-02-07 04:27:00,36.3,30.4,30.35,NNW,337,0.0,-999.0,79,0.00,Sunny,,0.00,Open2300\PHP-WU,2013-02-07 09:27:00,
2013-02-07 04:33:00,36.3,30.4,30.35,NNW,337,0.0,-999.0,79,0.00,Sunny,,0.00,Open2300\PHP-WU,2013-02-07 09:33:00,
2013-02-07 04:39:00,36.3,30.4,30.35,NNW,337,0.0,-999.0,79,0.00,Sunny,,0.00,Open2300\PHP-WU,2013-02-07 09:39:00,
2013-02-07 04:45:00,36.3,30.4,30.35,NW,315,0.0,-999.0,79,0.00,Sunny,,0.00,Open2300\PHP-WU,2013-02-07 09:45:00,
2013-02-07 04:51:00,36.3,30.4,30.35,NNE,22,0.0,-999.0,79,0.00,Sunny,,0.00,Open2300\PHP-WU,2013-02-07 09:51:00,
2013-02-07 04:57:00,36.1,30.2,30.35,North,0,0.0,-999.0,79,0.00,Sunny,,0.00,Open2300\PHP-WU,2013-02-07 09:57:00,
2013-02-07 05:03:00,36.1,30.2,30.36,ENE,67,0.0,-999.0,79,0.00,Sunny,,0.00,Open2300\PHP-WU,2013-02-07 10:03:00,
2013-02-07 05:09:00,36.1,30.6,30.36,North,0,0.0,-999.0,80,0.00,Sunny,,0.00,Open2300\PHP-WU,2013-02-07 10:09:00,
2013-02-07 05:15:00,36.1,30.6,30.36,North,0,0.0,-999.0,80,0.00,Sunny,,0.00,Open2300\PHP-WU,2013-02-07 10:15:00,
2013-02-07 05:21:00,36.3,30.7,30.35,North,0,0.0,-999.0,80,0.00,Sunny,,0.00,Open2300\PHP-WU,2013-02-07 10:21:00,
2013-02-07 05:27:00,36.1,30.6,30.36,NE,45,0.0,-999.0,80,0.00,Sunny,,0.00,Open2300\PHP-WU,2013-02-07 10:27:00,
2013-02-07 05:33:00,36.1,30.6,30.36,North,0,0.0,-999.0,80,0.00,Sunny,,0.00,Open2300\PHP-WU,2013-02-07 10:33:00,
2013-02-07 05:39:00,36.1,30.6,30.36,NNW,337,0.0,-999.0,80,0.00,Sunny,,0.00,Open2300\PHP-WU,2013-02-07 10:39:00,
2013-02-07 05:45:00,36.1,30.6,30.36,NNE,22,0.0,-999.0,80,0.00,Sunny,,0.00,Open2300\PHP-WU,2013-02-07 10:45:00,
2013-02-07 05:51:00,36.1,30.6,30.37,ENE,67,0.0,-999.0,80,0.00,Sunny,,0.00,Open2300\PHP-WU,2013-02-07 10:51:00,
2013-02-07 05:57:00,36.1,30.6,30.37,NNW,337,0.0,-999.0,80,0.00,Sunny,,0.00,Open2300\PHP-WU,2013-02-07 10:57:00,
2013-02-07 06:03:00,36.0,30.4,30.38,NNW,337,0.0,-999.0,80,0.00,Sunny,,0.00,Open2300\PHP-WU,2013-02-07 11:03:00,
2013-02-07 06:09:00,35.8,30.2,30.38,NNW,337,1.3,-999.0,80,0.00,Sunny,,0.00,Open2300\PHP-WU,2013-02-07 11:09:00,
2013-02-07 06:15:00,35.8,30.2,30.38,North,0,0.0,-999.0,80,0.00,Sunny,,0.00,Open2300\PHP-WU,2013-02-07 11:15:00,
2013-02-07 06:21:00,35.8,30.2,30.38,NNW,337,0.0,-999.0,80,0.00,Sunny,,0.00,Open2300\PHP-WU,2013-02-07 11:21:00,
2013-02-07 06:27:00,35.6,30.0,30.38,NNW,337,0.0,-999.0,80,0.00,Sunny,,0.00,Open2300\PHP-WU,2013-02-07 11:27:00,
2013-02-07 06:33:00,35.4,29.8,30.38,NNW,337,0.0,-999.0,80,0.00,Sunny,,0.00,Open2300\PHP-WU,2013-02-07 11:33:00,
2013-02-07 06:39:00,35.2,29.7,30.39,NNW,337,0.0,-999.0,80,0.00,Sunny,,0.00,Open2300\PHP-WU,2013-02-07 11:39:00,
2013-02-07 06:45:00,35.2,29.7,30.38,NNW,337,0.0,-999.0,80,0.00,Sunny,,0.00,Open2300\PHP-WU,2013-02-07 11:45:00,
2013-02-07 06:51:00,35.1,29.5,30.39,NNW,337,0.0,-999.0,80,0.00,Sunny,,0.00,Open2300\PHP-WU,2013-02-07 11:51:00,
2013-02-07 06:57:00,34.9,29.6,30.39,NNW,337,0.0,-999.0,81,0.00,Sunny,,0.00,Open2300\PHP-WU,2013-02-07 11:57:00,
2013-02-07 07:02:00,34.9,29.6,30.39,North,0,0.0,-999.0,81,0.00,Sunny,,0.00,Open2300\PHP-WU,2013-02-07 12:02:00,
2013-02-07 07:09:00,34.7,29.4,30.39,NNW,337,0.0,-999.0,81,0.00,Sunny,,0.00,Open2300\PHP-WU,2013-02-07 12:09:00,
2013-02-07 07:14:00,34.9,29.6,30.39,North,0,0.0,-999.0,81,0.00,Sunny,,0.00,Open2300\PHP-WU,2013-02-07 12:14:00,
2013-02-07 07:20:00,34.9,29.9,30.39,North,0,0.0,-999.0,82,0.00,Sunny,,0.00,Open2300\PHP-WU,2013-02-07 12:20:00,
2013-02-07 07:27:00,34.9,29.9,30.39,NNW,337,0.0,-999.0,82,0.00,Sunny,,0.00,Open2300\PHP-WU,2013-02-07 12:27:00,
2013-02-07 07:32:00,35.2,30.2,30.40,North,0,0.0,-999.0,82,0.00,Sunny,,0.00,Open2300\PHP-WU,2013-02-07 12:32:00,
2013-02-07 07:38:00,35.4,30.4,30.40,NNW,337,0.0,-999.0,82,0.00,Sunny,,0.00,Open2300\PHP-WU,2013-02-07 12:38:00,
2013-02-07 07:44:00,35.8,30.8,30.40,NNE,22,0.0,-999.0,82,0.00,Sunny,,0.00,Open2300\PHP-WU,2013-02-07 12:44:00,
2013-02-07 07:50:00,35.8,30.8,30.40,North,0,0.0,-999.0,82,0.00,Sunny,,0.00,Open2300\PHP-WU,2013-02-07 12:50:00,
2013-02-07 07:56:00,36.1,31.1,30.40,North,0,0.0,-999.0,82,0.00,Sunny,,0.00,Open2300\PHP-WU,2013-02-07 12:56:00,
2013-02-07 08:02:00,36.3,31.3,30.40,North,0,0.0,-999.0,82,0.00,Sunny,,0.00,Open2300\PHP-WU,2013-02-07 13:02:00,
2013-02-07 08:09:00,36.3,31.3,30.40,ESE,112,0.0,-999.0,82,0.00,Sunny,,0.00,Open2300\PHP-WU,2013-02-07 13:09:00,
2013-02-07 08:15:00,36.7,31.7,30.40,North,0,0.0,-999.0,82,0.00,Sunny,,0.00,Open2300\PHP-WU,2013-02-07 13:15:00,
2013-02-07 08:20:00,36.7,31.7,30.39,NNW,337,0.0,-999.0,82,0.00,Sunny,,0.00,Open2300\PHP-WU,2013-02-07 13:20:00,
2013-02-07 08:26:00,37.0,31.7,30.40,NNE,22,0.0,-999.0,81,0.00,Sunny,,0.00,Open2300\PHP-WU,2013-02-07 13:26:00,
2013-02-07 08:32:00,37.0,31.7,30.40,NNW,337,0.0,-999.0,81,0.00,Sunny,,0.00,Open2300\PHP-WU,2013-02-07 13:32:00,
2013-02-07 08:38:00,37.2,31.9,30.40,North,0,0.0,-999.0,81,0.00,Sunny,,0.00,Open2300\PHP-WU,2013-02-07 13:38:00,
2013-02-07 08:44:00,37.4,32.1,30.40,NNE,22,0.0,-999.0,81,0.00,Sunny,,0.00,Open2300\PHP-WU,2013-02-07 13:44:00,
2013-02-07 08:50:00,37.6,32.3,30.40,ENE,67,0.0,-999.0,81,0.00,Sunny,,0.00,Open2300\PHP-WU,2013-02-07 13:50:00,
2013-02-07 08:56:00,37.9,32.4,30.40,SE,135,0.0,-999.0,80,0.00,Sunny,,0.00,Open2300\PHP-WU,2013-02-07 13:56:00,
2013-02-07 09:02:00,38.5,32.9,30.40,North,0,3.8,-999.0,80,0.00,Sunny,,0.00,Open2300\PHP-WU,2013-02-07 14:02:00,
2013-02-07 09:08:00,38.7,32.7,30.40,NE,45,0.0,-999.0,79,0.00,Sunny,,0.00,Open2300\PHP-WU,2013-02-07 14:08:00,
2013-02-07 09:14:00,39.0,32.8,30.40,NNW,337,1.8,-999.0,78,0.00,Sunny,,0.00,Open2300\PHP-WU,2013-02-07 14:14:00,
2013-02-07 09:20:00,39.4,33.1,30.39,NE,45,0.0,-999.0,78,0.00,Sunny,,0.00,Open2300\PHP-WU,2013-02-07 14:20:00,
2013-02-07 09:26:00,39.9,33.3,30.39,North,0,0.0,-999.0,77,0.00,Sunny,,0.00,Open2300\PHP-WU,2013-02-07 14:26:00,
2013-02-07 09:32:00,40.1,33.1,30.38,NNW,337,0.0,-999.0,76,0.00,Sunny,,0.00,Open2300\PHP-WU,2013-02-07 14:32:00,
2013-02-07 09:38:00,40.3,32.9,30.39,North,0,0.0,-999.0,75,0.00,Sunny,,0.00,Open2300\PHP-WU,2013-02-07 14:38:00,
2013-02-07 09:44:00,40.6,33.3,30.39,NNE,22,0.0,-999.0,75,0.00,Sunny,,0.00,Open2300\PHP-WU,2013-02-07 14:44:00,
2013-02-07 09:50:00,40.5,32.8,30.38,NNE,22,0.0,-999.0,74,0.00,Sunny,,0.00,Open2300\PHP-WU,2013-02-07 14:50:00,
2013-02-07 09:56:00,40.6,32.9,30.39,NNW,337,4.7,-999.0,74,0.00,Sunny,,0.00,Open2300\PHP-WU,2013-02-07 14:56:00,
2013-02-07 10:02:00,40.8,32.8,30.39,NE,45,0.0,-999.0,73,0.00,Sunny,,0.00,Open2300\PHP-WU,2013-02-07 15:02:00,
2013-02-07 10:08:00,41.0,33.0,30.38,NE,45,0.0,-999.0,73,0.00,Sunny,,0.00,Open2300\PHP-WU,2013-02-07 15:08:00,
2013-02-07 10:14:00,41.2,32.8,30.38,NNW,337,0.0,-999.0,72,0.00,Sunny,,0.00,Open2300\PHP-WU,2013-02-07 15:14:00,
2013-02-07 10:20:00,41.4,33.0,30.38,WNW,292,0.0,-999.0,72,0.00,Sunny,,0.00,Open2300\PHP-WU,2013-02-07 15:20:00,
2013-02-07 10:26:00,41.5,32.9,30.38,ENE,67,0.0,-999.0,71,0.00,Sunny,,0.00,Open2300\PHP-WU,2013-02-07 15:26:00,
2013-02-07 10:32:00,41.9,33.2,30.38,North,0,0.7,-999.0,71,0.00,Sunny,,0.00,Open2300\PHP-WU,2013-02-07 15:32:00,
2013-02-07 10:38:00,41.5,32.5,30.38,North,0,0.0,-999.0,70,0.00,Sunny,,0.00,Open2300\PHP-WU,2013-02-07 15:38:00,
2013-02-07 10:44:00,41.5,32.5,30.38,North,0,0.0,-999.0,70,0.00,Sunny,,0.00,Open2300\PHP-WU,2013-02-07 15:44:00,
2013-02-07 10:50:00,41.5,32.5,30.37,NNW,337,2.9,-999.0,70,0.00,Sunny,,0.00,Open2300\PHP-WU,2013-02-07 15:50:00,
2013-02-07 10:56:00,41.9,32.9,30.37,East,90,0.0,-999.0,70,0.00,Sunny,,0.00,Open2300\PHP-WU,2013-02-07 15:56:00,
2013-02-07 11:02:00,42.6,33.2,30.37,North,0,0.0,-999.0,69,0.00,Sunny,,0.00,Open2300\PHP-WU,2013-02-07 16:02:00,
2013-02-07 11:08:00,42.6,33.2,30.37,NNE,22,0.0,-999.0,69,0.00,Sunny,,0.00,Open2300\PHP-WU,2013-02-07 16:08:00,
2013-02-07 11:14:00,43.2,33.3,30.36,SW,225,0.0,-999.0,68,0.00,Sunny,,0.00,Open2300\PHP-WU,2013-02-07 16:14:00,
2013-02-07 11:20:00,43.5,33.7,30.36,NNE,22,0.0,-999.0,68,0.00,Sunny,,0.00,Open2300\PHP-WU,2013-02-07 16:20:00,
2013-02-07 11:26:00,43.7,33.4,30.36,NNW,337,0.0,-999.0,67,0.00,Sunny,,0.00,Open2300\PHP-WU,2013-02-07 16:26:00,
2013-02-07 11:32:00,44.2,33.6,30.36,NNW,337,0.0,-999.0,66,0.00,Sunny,,0.00,Open2300\PHP-WU,2013-02-07 16:32:00,
2013-02-07 11:38:00,44.2,33.6,30.36,North,0,0.0,-999.0,66,0.00,Sunny,,0.00,Open2300\PHP-WU,2013-02-07 16:38:00,
2013-02-07 11:44:00,44.6,33.5,30.35,North,0,3.6,-999.0,65,0.00,Sunny,,0.00,Open2300\PHP-WU,2013-02-07 16:44:00,
2013-02-07 11:50:00,44.6,33.5,30.35,NNW,337,2.5,-999.0,65,0.00,Sunny,,0.00,Open2300\PHP-WU,2013-02-07 16:50:00,
2013-02-07 11:56:00,44.8,33.7,30.35,WNW,292,0.0,-999.0,65,0.00,Sunny,,0.00,Open2300\PHP-WU,2013-02-07 16:56:00,
2013-02-07 12:02:00,45.1,34.0,30.35,North,0,0.0,-999.0,65,0.00,Sunny,,0.00,Open2300\PHP-WU,2013-02-07 17:02:00,
2013-02-07 12:08:00,46.0,34.9,30.34,NNE,22,0.0,-999.0,65,0.00,Sunny,,0.00,Open2300\PHP-WU,2013-02-07 17:08:00,
2013-02-07 12:14:00,46.2,34.7,30.34,West,270,0.0,-999.0,64,0.00,Sunny,,0.00,Open2300\PHP-WU,2013-02-07 17:14:00,
2013-02-07 12:20:00,46.2,34.7,30.33,NNW,337,0.0,-999.0,64,0.00,Sunny,,0.00,Open2300\PHP-WU,2013-02-07 17:20:00,
2013-02-07 12:26:00,46.2,34.3,30.33,North,0,1.6,-999.0,63,0.00,Sunny,,0.00,Open2300\PHP-WU,2013-02-07 17:26:00,
2013-02-07 12:32:00,46.2,34.3,30.33,North,0,0.0,-999.0,63,0.00,Sunny,,0.00,Open2300\PHP-WU,2013-02-07 17:32:00,
2013-02-07 12:38:00,46.2,34.3,30.33,North,0,0.0,-999.0,63,0.00,Sunny,,0.00,Open2300\PHP-WU,2013-02-07 17:38:00,
2013-02-07 12:44:00,46.4,34.4,30.31,NNE,22,5.1,-999.0,63,0.00,Sunny,,0.00,Open2300\PHP-WU,2013-02-07 17:44:00,
2013-02-07 12:50:00,46.8,34.8,30.31,SE,135,0.0,-999.0,63,0.00,Sunny,,0.00,Open2300\PHP-WU,2013-02-07 17:50:00,
2013-02-07 12:56:00,47.7,35.7,30.31,NW,315,0.0,-999.0,63,0.00,Sunny,,0.00,Open2300\PHP-WU,2013-02-07 17:56:00,
2013-02-07 13:02:00,47.7,35.3,30.30,East,90,0.0,-999.0,62,0.00,Sunny,,0.00,Open2300\PHP-WU,2013-02-07 18:02:00,
2013-02-07 13:08:00,47.8,35.5,30.30,North,0,0.0,-999.0,62,0.00,Sunny,,0.00,Open2300\PHP-WU,2013-02-07 18:08:00,
2013-02-07 13:14:00,48.0,35.6,30.30,NNW,337,1.6,-999.0,62,0.00,Sunny,,0.00,Open2300\PHP-WU,2013-02-07 18:14:00,
2013-02-07 13:20:00,48.4,35.6,30.29,North,0,0.0,-999.0,61,0.00,Sunny,,0.00,Open2300\PHP-WU,2013-02-07 18:20:00,
2013-02-07 13:26:00,48.9,36.1,30.30,NNW,337,0.0,-999.0,61,0.00,Sunny,,0.00,Open2300\PHP-WU,2013-02-07 18:26:00,
2013-02-07 13:32:00,49.1,36.2,30.30,North,0,0.0,-999.0,61,0.00,Sunny,,0.00,Open2300\PHP-WU,2013-02-07 18:32:00,
2013-02-07 13:38:00,49.3,36.0,30.29,ESE,112,0.0,-999.0,60,0.00,Sunny,,0.00,Open2300\PHP-WU,2013-02-07 18:38:00,
2013-02-07 13:44:00,49.6,36.4,30.29,NNW,337,4.3,-999.0,60,0.00,Sunny,,0.00,Open2300\PHP-WU,2013-02-07 18:44:00,
2013-02-07 13:50:00,49.6,36.4,30.29,South,180,0.0,-999.0,60,0.00,Sunny,,0.00,Open2300\PHP-WU,2013-02-07 18:50:00,
2013-02-07 13:56:00,49.8,36.5,30.29,NNE,22,0.0,-999.0,60,0.00,Sunny,,0.00,Open2300\PHP-WU,2013-02-07 18:56:00,
2013-02-07 14:02:00,50.2,36.8,30.29,NNW,337,0.0,-999.0,60,0.00,Sunny,,0.00,Open2300\PHP-WU,2013-02-07 19:02:00,
2013-02-07 14:08:00,50.0,36.7,30.28,ENE,67,0.0,-999.0,60,0.00,Sunny,,0.00,Open2300\PHP-WU,2013-02-07 19:08:00,
2013-02-07 14:14:00,49.8,36.5,30.28,North,0,0.0,-999.0,60,0.00,Sunny,,0.00,Open2300\PHP-WU,2013-02-07 19:14:00,
2013-02-07 14:20:00,49.8,36.5,30.28,NE,45,0.0,-999.0,60,0.00,Sunny,,0.00,Open2300\PHP-WU,2013-02-07 19:20:00,
2013-02-07 14:26:00,49.3,36.0,30.27,ENE,67,0.0,-999.0,60,0.00,Sunny,,0.00,Open2300\PHP-WU,2013-02-07 19:26:00,
2013-02-07 14:32:00,48.9,36.1,30.27,North,0,0.0,-999.0,61,0.00,Sunny,,0.00,Open2300\PHP-WU,2013-02-07 19:32:00,
2013-02-07 14:38:00,49.1,36.2,30.27,NE,45,0.0,-999.0,61,0.00,Sunny,,0.00,Open2300\PHP-WU,2013-02-07 19:38:00,
2013-02-07 14:44:00,49.1,36.2,30.27,NNE,22,0.0,-999.0,61,0.00,Sunny,,0.00,Open2300\PHP-WU,2013-02-07 19:44:00,
2013-02-07 14:50:00,48.9,36.1,30.28,North,0,0.0,-999.0,61,0.00,Sunny,,0.00,Open2300\PHP-WU,2013-02-07 19:50:00,
2013-02-07 14:56:00,48.7,35.9,30.27,East,90,0.0,-999.0,61,0.00,Sunny,,0.00,Open2300\PHP-WU,2013-02-07 19:56:00,
2013-02-07 15:03:00,48.9,36.5,30.27,North,0,0.0,-999.0,62,0.00,Sunny,,0.00,Open2300\PHP-WU,2013-02-07 20:03:00,
2013-02-07 15:09:00,48.9,36.1,30.28,North,0,0.0,-999.0,61,0.00,Sunny,,0.00,Open2300\PHP-WU,2013-02-07 20:09:00,
2013-02-07 15:15:00,48.7,36.3,30.27,North,0,0.0,-999.0,62,0.00,Sunny,,0.00,Open2300\PHP-WU,2013-02-07 20:15:00,
2013-02-07 15:21:00,48.6,36.1,30.26,NNE,22,0.0,-999.0,62,0.00,Sunny,,0.00,Open2300\PHP-WU,2013-02-07 20:21:00,
2013-02-07 15:27:00,48.4,36.4,30.26,ESE,112,0.0,-999.0,63,0.00,Sunny,,0.00,Open2300\PHP-WU,2013-02-07 20:27:00,
2013-02-07 15:33:00,48.4,36.4,30.26,NNW,337,0.0,-999.0,63,0.00,Sunny,,0.00,Open2300\PHP-WU,2013-02-07 20:33:00,
2013-02-07 15:39:00,48.2,36.2,30.27,North,0,0.0,-999.0,63,0.00,Sunny,,0.00,Open2300\PHP-WU,2013-02-07 20:39:00,
2013-02-07 15:45:00,48.0,36.0,30.26,NNE,22,0.0,-999.0,63,0.00,Sunny,,0.00,Open2300\PHP-WU,2013-02-07 20:45:00,
2013-02-07 15:51:00,48.0,36.0,30.26,ENE,67,0.0,-999.0,63,0.00,Sunny,,0.00,Open2300\PHP-WU,2013-02-07 20:51:00,
2013-02-07 15:57:00,47.8,35.8,30.26,NE,45,0.0,-999.0,63,0.00,Sunny,,0.00,Open2300\PHP-WU,2013-02-07 20:57:00,
2013-02-07 16:03:00,47.7,36.1,30.26,NNW,337,0.0,-999.0,64,0.00,Sunny,,0.00,Open2300\PHP-WU,2013-02-07 21:03:00,
2013-02-07 16:09:00,47.5,35.9,30.27,NNW,337,0.0,-999.0,64,0.00,Sunny,,0.00,Open2300\PHP-WU,2013-02-07 21:09:00,
2013-02-07 16:15:00,47.5,35.9,30.26,NW,315,0.0,-999.0,64,0.00,Sunny,,0.00,Open2300\PHP-WU,2013-02-07 21:15:00,
2013-02-07 16:21:00,47.5,35.9,30.26,NNW,337,3.8,-999.0,64,0.00,Sunny,,0.00,Open2300\PHP-WU,2013-02-07 21:21:00,
2013-02-07 16:27:00,47.3,35.7,30.26,North,0,0.0,-999.0,64,0.00,Sunny,,0.00,Open2300\PHP-WU,2013-02-07 21:27:00,
2013-02-07 16:33:00,47.1,35.9,30.26,North,0,0.0,-999.0,65,0.00,Sunny,,0.00,Open2300\PHP-WU,2013-02-07 21:33:00,
2013-02-07 16:39:00,47.1,35.9,30.25,North,0,0.0,-999.0,65,0.00,Sunny,,0.00,Open2300\PHP-WU,2013-02-07 21:39:00,
2013-02-07 16:45:00,46.9,35.7,30.25,ENE,67,0.0,-999.0,65,0.00,Sunny,,0.00,Open2300\PHP-WU,2013-02-07 21:45:00,
2013-02-07 16:51:00,46.9,36.1,30.25,East,90,0.0,-999.0,66,0.00,Sunny,,0.00,Open2300\PHP-WU,2013-02-07 21:51:00,
2013-02-07 16:57:00,46.8,36.0,30.25,NNW,337,0.0,-999.0,66,0.00,Sunny,,0.00,Open2300\PHP-WU,2013-02-07 21:57:00,
2013-02-07 17:03:00,46.8,36.0,30.25,North,0,0.0,-999.0,66,0.00,Sunny,,0.00,Open2300\PHP-WU,2013-02-07 22:03:00,
2013-02-07 17:09:00,46.6,35.8,30.25,NNE,22,1.3,-999.0,66,0.00,Sunny,,0.00,Open2300\PHP-WU,2013-02-07 22:09:00,
2013-02-07 17:15:00,46.6,35.8,30.25,NNW,337,0.0,-999.0,66,0.00,Sunny,,0.00,Open2300\PHP-WU,2013-02-07 22:15:00,
2013-02-07 17:21:00,46.2,35.9,30.25,North,0,0.0,-999.0,67,0.00,Sunny,,0.00,Open2300\PHP-WU,2013-02-07 22:21:00,
2013-02-07 17:27:00,46.2,35.9,30.25,NNE,22,0.0,-999.0,67,0.00,Sunny,,0.00,Open2300\PHP-WU,2013-02-07 22:27:00,
2013-02-07 17:33:00,46.2,35.9,30.25,NNE,22,0.0,-999.0,67,0.00,Sunny,,0.00,Open2300\PHP-WU,2013-02-07 22:33:00,
2013-02-07 17:39:00,46.0,36.1,30.25,East,90,0.0,-999.0,68,0.00,Sunny,,0.00,Open2300\PHP-WU,2013-02-07 22:39:00,
2013-02-07 17:45:00,46.0,36.5,30.25,NNW,337,0.0,-999.0,69,0.00,Sunny,,0.00,Open2300\PHP-WU,2013-02-07 22:45:00,
2013-02-07 17:51:00,45.7,36.5,30.24,NNW,337,0.0,-999.0,70,0.00,Sunny,,0.00,Open2300\PHP-WU,2013-02-07 22:51:00,
2013-02-07 17:57:00,45.5,36.7,30.24,NNW,337,2.2,-999.0,71,0.00,Sunny,,0.00,Open2300\PHP-WU,2013-02-07 22:57:00,
2013-02-07 18:03:00,45.3,36.5,30.23,NW,315,0.0,-999.0,71,0.00,Cloudy,,0.00,Open2300\PHP-WU,2013-02-07 23:03:00,
2013-02-07 18:08:00,45.3,36.8,30.23,ESE,112,0.0,-999.0,72,0.00,Cloudy,,0.00,Open2300\PHP-WU,2013-02-07 23:08:00,
2013-02-07 18:15:00,45.1,37.0,30.23,NNE,22,0.0,-999.0,73,0.00,Cloudy,,0.00,Open2300\PHP-WU,2013-02-07 23:15:00,
2013-02-07 18:21:00,45.0,36.8,30.23,NNW,337,0.0,-999.0,73,0.00,Cloudy,,0.00,Open2300\PHP-WU,2013-02-07 23:21:00,
2013-02-07 18:27:00,45.0,36.8,30.22,NNW,337,2.2,-999.0,73,0.00,Cloudy,,0.00,Open2300\PHP-WU,2013-02-07 23:27:00,
2013-02-07 18:33:00,45.0,37.1,30.22,North,0,0.0,-999.0,74,0.00,Cloudy,,0.00,Open2300\PHP-WU,2013-02-07 23:33:00,
2013-02-07 18:39:00,44.6,37.1,30.22,NNE,22,0.0,-999.0,75,0.00,Cloudy,,0.00,Open2300\PHP-WU,2013-02-07 23:39:00,
2013-02-07 18:44:00,44.4,37.0,30.22,NW,315,0.0,-999.0,75,0.00,Cloudy,,0.00,Open2300\PHP-WU,2013-02-07 23:44:00,
2013-02-07 18:51:00,44.4,37.6,30.22,ESE,112,0.0,-999.0,77,0.00,Cloudy,,0.00,Open2300\PHP-WU,2013-02-07 23:51:00,
2013-02-07 18:57:00,44.2,37.5,30.22,NNW,337,0.0,-999.0,77,0.00,Cloudy,,0.00,Open2300\PHP-WU,2013-02-07 23:57:00,
2013-02-07 19:02:00,44.1,37.6,30.22,NNW,337,0.0,-999.0,78,0.00,Cloudy,,0.00,Open2300\PHP-WU,2013-02-08 00:02:00,
2013-02-07 19:08:00,43.9,37.4,30.21,ESE,112,0.0,-999.0,78,0.00,Cloudy,,0.00,Open2300\PHP-WU,2013-02-08 00:08:00,
2013-02-07 19:15:00,43.7,37.6,30.21,NNE,22,0.0,-999.0,79,0.00,Cloudy,,0.00,Open2300\PHP-WU,2013-02-08 00:15:00,
2013-02-07 19:20:00,43.5,37.8,30.21,North,0,0.0,-999.0,80,0.00,Cloudy,,0.00,Open2300\PHP-WU,2013-02-08 00:20:00,
2013-02-07 19:27:00,43.5,37.8,30.21,NNE,22,0.0,-999.0,81,0.00,Cloudy,,0.00,Open2300\PHP-WU,2013-02-08 00:27:00,
2013-02-07 19:32:00,43.3,37.9,30.20,North,0,0.0,-999.0,81,0.00,Cloudy,,0.00,Open2300\PHP-WU,2013-02-08 00:32:00,
2013-02-07 19:38:00,43.3,37.9,30.19,North,0,0.0,-999.0,81,0.00,Cloudy,,0.00,Open2300\PHP-WU,2013-02-08 00:38:00,
2013-02-07 19:44:00,43.2,38.0,30.19,NE,45,0.0,-999.0,82,0.00,Cloudy,,0.00,Open2300\PHP-WU,2013-02-08 00:44:00,
2013-02-07 19:50:00,43.2,38.3,30.19,North,0,0.0,-999.0,83,0.00,Cloudy,,0.00,Open2300\PHP-WU,2013-02-08 00:50:00,
2013-02-07 19:56:00,43.2,38.3,30.19,North,0,0.0,-999.0,83,0.00,Cloudy,,0.00,Open2300\PHP-WU,2013-02-08 00:56:00,
2013-02-07 20:02:00,43.2,38.6,30.18,NNW,337,2.5,-999.0,84,0.00,Cloudy,,0.00,Open2300\PHP-WU,2013-02-08 01:02:00,
2013-02-07 20:08:00,43.2,38.6,30.18,NNW,337,4.5,-999.0,84,0.00,Cloudy,,0.00,Open2300\PHP-WU,2013-02-08 01:08:00,
2013-02-07 20:14:00,43.0,38.4,30.18,ENE,67,0.0,-999.0,84,0.00,Cloudy,,0.00,Open2300\PHP-WU,2013-02-08 01:14:00,
2013-02-07 20:21:00,42.8,38.3,30.18,NW,315,0.0,-999.0,84,0.00,Cloudy,,0.00,Open2300\PHP-WU,2013-02-08 01:21:00,
2013-02-07 20:26:00,42.6,38.1,30.17,NNW,337,8.9,-999.0,84,0.00,Cloudy,,0.00,Open2300\PHP-WU,2013-02-08 01:26:00,
2013-02-07 20:32:00,42.6,38.4,30.17,NNE,22,0.0,-999.0,85,0.00,Cloudy,,0.00,Open2300\PHP-WU,2013-02-08 01:32:00,
2013-02-07 20:38:00,42.6,38.4,30.16,NNW,337,0.0,-999.0,85,0.00,Cloudy,,0.00,Open2300\PHP-WU,2013-02-08 01:38:00,
2013-02-07 20:44:00,42.6,38.4,30.16,NNE,22,2.9,-999.0,85,0.00,Cloudy,,0.00,Open2300\PHP-WU,2013-02-08 01:44:00,
2013-02-07 20:50:00,42.4,38.2,30.15,North,0,0.0,-999.0,85,0.00,Cloudy,,0.00,Open2300\PHP-WU,2013-02-08 01:50:00,
2013-02-07 20:56:00,42.4,38.2,30.15,NNW,337,0.0,-999.0,85,0.00,Cloudy,,0.00,Open2300\PHP-WU,2013-02-08 01:56:00,
2013-02-07 21:02:00,42.4,38.2,30.15,NE,45,0.0,-999.0,85,0.00,Cloudy,,0.00,Open2300\PHP-WU,2013-02-08 02:02:00,
2013-02-07 21:08:00,42.1,37.9,30.15,East,90,0.0,-999.0,85,0.00,Cloudy,,0.00,Open2300\PHP-WU,2013-02-08 02:08:00,
2013-02-07 21:14:00,42.1,37.9,30.15,East,90,0.0,-999.0,85,0.00,Cloudy,,0.00,Open2300\PHP-WU,2013-02-08 02:14:00,
2013-02-07 21:20:00,42.1,37.9,30.15,ESE,112,0.0,-999.0,85,0.00,Cloudy,,0.00,Open2300\PHP-WU,2013-02-08 02:20:00,
2013-02-07 21:26:00,42.1,38.2,30.15,East,90,0.0,-999.0,86,0.00,Cloudy,,0.00,Open2300\PHP-WU,2013-02-08 02:26:00,
2013-02-07 21:32:00,42.1,38.2,30.15,ESE,112,0.0,-999.0,86,0.00,Cloudy,,0.00,Open2300\PHP-WU,2013-02-08 02:32:00,
2013-02-07 21:38:00,42.1,38.2,30.15,ENE,67,0.0,-999.0,86,0.00,Cloudy,,0.00,Open2300\PHP-WU,2013-02-08 02:38:00,
2013-02-07 21:44:00,42.1,38.2,30.15,South,180,0.0,-999.0,86,0.00,Cloudy,,0.00,Open2300\PHP-WU,2013-02-08 02:44:00,
2013-02-07 21:50:00,42.1,38.2,30.14,NNE,22,0.0,-999.0,86,0.00,Cloudy,,0.00,Open2300\PHP-WU,2013-02-08 02:50:00,
2013-02-07 21:56:00,42.1,38.2,30.14,NE,45,0.0,-999.0,86,0.00,Cloudy,,0.00,Open2300\PHP-WU,2013-02-08 02:56:00,
2013-02-07 22:02:00,42.1,38.2,30.14,WNW,292,0.0,-999.0,86,0.00,Cloudy,,0.00,Open2300\PHP-WU,2013-02-08 03:02:00,
2013-02-07 22:08:00,42.1,38.2,30.14,NNW,337,0.2,-999.0,86,0.00,Cloudy,,0.00,Open2300\PHP-WU,2013-02-08 03:08:00,
2013-02-07 22:14:00,42.1,38.2,30.14,NNE,22,0.0,-999.0,86,0.00,Cloudy,,0.00,Open2300\PHP-WU,2013-02-08 03:14:00,
2013-02-07 22:20:00,42.1,38.2,30.13,NNE,22,0.0,-999.0,86,0.00,Cloudy,,0.00,Open2300\PHP-WU,2013-02-08 03:20:00,
2013-02-07 22:26:00,42.1,38.2,30.13,NE,45,0.0,-999.0,86,0.00,Cloudy,,0.00,Open2300\PHP-WU,2013-02-08 03:26:00,
2013-02-07 22:32:00,42.1,38.2,30.13,NNE,22,2.0,-999.0,86,0.00,Cloudy,,0.00,Open2300\PHP-WU,2013-02-08 03:32:00,
2013-02-07 22:38:00,42.1,38.2,30.12,North,0,0.0,-999.0,86,0.00,Cloudy,,0.00,Open2300\PHP-WU,2013-02-08 03:38:00,
2013-02-07 22:44:00,42.1,38.2,30.11,North,0,0.0,-999.0,86,0.00,Rainy,,0.00,Open2300\PHP-WU,2013-02-08 03:44:00,
2013-02-07 22:50:00,42.3,38.3,30.11,NNE,22,0.0,-999.0,86,0.00,Rainy,,0.00,Open2300\PHP-WU,2013-02-08 03:50:00,
2013-02-07 22:56:00,42.3,38.3,30.11,NNE,22,0.0,-999.0,86,0.00,Rainy,,0.00,Open2300\PHP-WU,2013-02-08 03:56:00,
2013-02-07 23:02:00,42.3,38.3,30.10,NNW,337,0.0,-999.0,86,0.00,Rainy,,0.00,Open2300\PHP-WU,2013-02-08 04:02:00,
2013-02-07 23:08:00,42.3,38.3,30.10,NE,45,0.0,-999.0,86,0.00,Rainy,,0.00,Open2300\PHP-WU,2013-02-08 04:08:00,
2013-02-07 23:14:00,42.4,38.5,30.09,North,0,0.0,-999.0,86,0.00,Rainy,,0.00,Open2300\PHP-WU,2013-02-08 04:14:00,
2013-02-07 23:20:00,42.4,38.5,30.09,NE,45,0.0,-999.0,86,0.00,Rainy,,0.00,Open2300\PHP-WU,2013-02-08 04:20:00,
2013-02-07 23:26:00,42.4,38.5,30.09,NNW,337,6.5,-999.0,86,0.00,Rainy,,0.00,Open2300\PHP-WU,2013-02-08 04:26:00,
2013-02-07 23:32:00,42.4,38.8,30.08,North,0,0.0,-999.0,87,0.00,Rainy,,0.00,Open2300\PHP-WU,2013-02-08 04:32:00,
2013-02-07 23:38:00,42.4,38.8,30.08,NNW,337,1.6,-999.0,87,0.00,Rainy,,0.00,Open2300\PHP-WU,2013-02-08 04:38:00,
2013-02-07 23:44:00,42.4,38.8,30.07,NNW,337,0.0,-999.0,87,0.00,Rainy,,0.00,Open2300\PHP-WU,2013-02-08 04:44:00,
2013-02-07 23:50:00,42.4,38.8,30.07,NNW,337,0.0,-999.0,87,0.00,Rainy,,0.00,Open2300\PHP-WU,2013-02-08 04:50:00,
2013-02-07 23:56:00,42.4,38.8,30.07,NNW,337,8.1,-999.0,87,0.00,Rainy,,0.00,Open2300\PHP-WU,2013-02-08 04:56:00,